Pampa, TX

3:14 AM CST on February 10, 2016 (GMT -0600)
Perry Lefors

Weather History for KPPA - October, 2012

Change the Weather History Date:

Sunday, October 7, 2012

  Actual Average (KBGD) Record (KBGD)
Temperature  
Mean Temperature 38 °F 64 °F  
Max Temperature 44 °F 76 °F 93 °F (1979)
Min Temperature 32 °F 52 °F 30 °F (1952)
Degree Days  
Heating Degree Days 27 4  
Month to date heating degree days 24  
Since 1 July heating degree days 52  
Cooling Degree Days 0 3  
Month to date cooling degree days 23  
Year to date cooling degree days 1808  
Moisture  
Dew Point 31 °F    
Average Humidity 79    
Maximum Humidity 93    
Minimum Humidity 61    
Precipitation  
Precipitation 0.00 in 0.06 in 0.50 in (1999)
Month to date precipitation 0.52  
Year to date precipitation 18.91  
Snow  
Snow 0.00 in - T in (1976)
Month to date snowfall  
Since 1 July snowfall  
Since 1 September snowfall  
Snow Depth -    
Sea Level Pressure  
Sea Level Pressure 30.26 in    
Wind  
Wind Speed 5 mph (South)    
Max Wind Speed 13 mph    
Max Gust Speed -    
Visibility 10 miles    
Events      
T = Trace of Precipitation, MM = Missing Value Source: NWS Daily Summary

Daily Weather History Graph

Daily Weather History Graph

Search for Another Location

Airport or City:

Trip Planner

Search our weather history database for the weather conditions in past years. The results will help you decide how hot, cold, wet, or windy it might be!

Date:

Astronomy

Oct. 07, 2012 Rise Set
Actual Time 7:44 AM CDT 7:18 PM CDT
Civil Twilight 7:18 AM CDT 7:44 PM CDT
Nautical Twilight 6:49 AM CDT 8:13 PM CDT
Astronomical Twilight 6:19 AM CDT 8:43 PM CDT
Moon No Moon Rise 2:14 PM CDT (10/7)
Length of Visible Light 12h 25m
Length of Day
11h 34m
Waning Gibbous, 56% of the Moon is Illuminated
Oct 7
Waning Gibbous
Oct 8
Last Quarter
Oct 15
New
Oct 21
First Quarter
Oct 29
Full

Hourly Weather History & Observations

Time (CDT) Temp. Windchill Dew Point Humidity Pressure Visibility Wind Dir Wind Speed Gust Speed Precip Events Conditions
12:15 AM 35.6 °F 30.7 °F 32.0 °F 87% 30.34 in 10.0 mi East 5.8 mph - N/A   Mostly Cloudy
12:35 AM 35.6 °F 32.8 °F 32.0 °F 87% 30.34 in 10.0 mi East 3.5 mph - N/A   Mostly Cloudy
12:55 AM 35.6 °F 32.8 °F 32.0 °F 87% 30.34 in 10.0 mi East 3.5 mph - N/A   Overcast
1:15 AM 35.6 °F 31.7 °F 32.0 °F 87% 30.33 in 10.0 mi ESE 4.6 mph - N/A   Overcast
1:35 AM 33.8 °F 29.6 °F 30.2 °F 87% 30.33 in 10.0 mi ESE 4.6 mph - N/A   Scattered Clouds
1:55 AM 33.8 °F 29.6 °F 30.2 °F 87% 30.33 in 10.0 mi SSE 4.6 mph - N/A   Clear
2:15 AM 33.8 °F 29.6 °F 30.2 °F 87% 30.33 in 10.0 mi SE 4.6 mph - N/A   Clear
2:35 AM 33.8 °F 30.8 °F 30.2 °F 87% 30.33 in 10.0 mi SE 3.5 mph - N/A   Clear
2:55 AM 33.8 °F 30.8 °F 30.2 °F 87% 30.33 in 10.0 mi ESE 3.5 mph - N/A   Clear
3:15 AM 33.8 °F - 32.0 °F 93% 30.33 in 10.0 mi Calm Calm - N/A   Scattered Clouds
3:35 AM 33.8 °F 30.8 °F 32.0 °F 93% 30.33 in 10.0 mi SE 3.5 mph - N/A   Mostly Cloudy
3:55 AM 35.6 °F 32.8 °F 32.0 °F 87% 30.32 in 10.0 mi SE 3.5 mph - N/A   Overcast
4:15 AM 35.6 °F 31.7 °F 32.0 °F 87% 30.31 in 10.0 mi ESE 4.6 mph - N/A   Overcast
4:35 AM 35.6 °F 29.9 °F 32.0 °F 87% 30.32 in 10.0 mi ESE 6.9 mph - N/A   Overcast
4:55 AM 35.6 °F 29.9 °F 32.0 °F 87% 30.32 in 10.0 mi East 6.9 mph - N/A   Overcast
5:15 AM 35.6 °F 30.7 °F 32.0 °F 87% 30.30 in 10.0 mi East 5.8 mph - N/A   Overcast
5:35 AM 35.6 °F 30.7 °F 32.0 °F 87% 30.30 in 10.0 mi ESE 5.8 mph - N/A   Overcast
5:55 AM 35.6 °F 32.8 °F 32.0 °F 87% 30.30 in 10.0 mi ESE 3.5 mph - N/A   Overcast
6:15 AM 35.6 °F 32.8 °F 32.0 °F 87% 30.31 in 10.0 mi SE 3.5 mph - N/A   Overcast
6:55 AM 35.6 °F - 32.0 °F 87% 30.30 in 10.0 mi Calm Calm - N/A   Overcast
7:15 AM 35.6 °F 31.7 °F 32.0 °F 87% 30.30 in 10.0 mi SE 4.6 mph - N/A   Mostly Cloudy
7:35 AM 35.6 °F 30.7 °F 32.0 °F 87% 30.28 in 10.0 mi ESE 5.8 mph - N/A   Mostly Cloudy
7:55 AM 33.8 °F 29.6 °F 32.0 °F 93% 30.29 in 10.0 mi SSE 4.6 mph - N/A   Scattered Clouds
8:35 AM 35.6 °F - 32.0 °F 87% 30.30 in 10.0 mi Calm Calm - N/A   Scattered Clouds
8:55 AM 35.6 °F - 32.0 °F 87% 30.30 in 10.0 mi Calm Calm - N/A   Scattered Clouds
9:15 AM 35.6 °F 32.8 °F 32.0 °F 87% 30.32 in 10.0 mi South 3.5 mph - N/A   Scattered Clouds
9:35 AM 35.6 °F 32.8 °F 32.0 °F 87% 30.32 in 10.0 mi SSE 3.5 mph - N/A   Clear
9:55 AM 37.4 °F 34.9 °F 32.0 °F 81% 30.31 in 10.0 mi SSE 3.5 mph - N/A   Scattered Clouds
10:15 AM 37.4 °F 33.8 °F 30.2 °F 75% 30.30 in 10.0 mi SE 4.6 mph - N/A   Scattered Clouds
10:35 AM 39.2 °F 35.0 °F 30.2 °F 70% 30.31 in 10.0 mi SE 5.8 mph - N/A   Scattered Clouds
10:55 AM 41.0 °F 39.0 °F 32.0 °F 70% 30.30 in 10.0 mi SSE 3.5 mph - N/A   Scattered Clouds
11:15 AM 41.0 °F 39.0 °F 30.2 °F 65% 30.30 in 10.0 mi SW 3.5 mph - N/A   Mostly Cloudy
11:55 AM 41.0 °F 39.0 °F 30.2 °F 65% 30.30 in 10.0 mi SSE 3.5 mph - N/A   Overcast
12:15 PM 41.0 °F 39.0 °F 30.2 °F 65% 30.30 in 10.0 mi South 3.5 mph - N/A   Overcast
12:35 PM 41.0 °F 38.0 °F 30.2 °F 65% 30.30 in 10.0 mi South 4.6 mph - N/A   Overcast
12:55 PM 41.0 °F 38.0 °F 30.2 °F 65% 30.29 in 10.0 mi South 4.6 mph - N/A   Overcast
1:15 PM 41.0 °F 38.0 °F 30.2 °F 65% 30.28 in 10.0 mi SSW 4.6 mph - N/A   Overcast
1:35 PM 42.8 °F 41.1 °F 30.2 °F 61% 30.28 in 10.0 mi SW 3.5 mph - N/A   Overcast
2:35 PM 42.8 °F 38.0 °F 30.2 °F 61% 30.24 in 10.0 mi South 8.1 mph - N/A   Overcast
2:55 PM 42.8 °F 39.3 °F 30.2 °F 61% 30.23 in 10.0 mi SSW 5.8 mph - N/A   Overcast
3:15 PM 42.8 °F 39.3 °F 30.2 °F 61% 30.24 in 10.0 mi SW 5.8 mph - N/A   Overcast
3:35 PM 42.8 °F 38.6 °F 30.2 °F 61% 30.23 in 10.0 mi South 6.9 mph - N/A   Overcast
3:55 PM 42.8 °F 40.1 °F 30.2 °F 61% 30.22 in 10.0 mi SW 4.6 mph - N/A   Overcast
4:15 PM 42.8 °F 40.1 °F 32.0 °F 66% 30.21 in 10.0 mi SSW 4.6 mph - N/A   Overcast
4:35 PM 42.8 °F 39.3 °F 32.0 °F 66% 30.21 in 10.0 mi South 5.8 mph - N/A   Overcast
4:55 PM 42.8 °F 39.3 °F 32.0 °F 66% 30.21 in 10.0 mi South 5.8 mph - N/A   Overcast
5:15 PM 42.8 °F 37.5 °F 30.2 °F 61% 30.19 in 10.0 mi SSW 9.2 mph - N/A   Overcast
5:35 PM 44.6 °F 40.7 °F 32.0 °F 61% 30.19 in 10.0 mi SW 6.9 mph - N/A   Overcast
5:55 PM 44.6 °F 40.2 °F 32.0 °F 61% 30.19 in 10.0 mi SW 8.1 mph - N/A   Mostly Cloudy
6:15 PM 44.6 °F 39.7 °F 32.0 °F 61% 30.19 in 10.0 mi SW 9.2 mph - N/A   Clear
6:35 PM 42.8 °F 38.6 °F 32.0 °F 66% 30.19 in 10.0 mi SW 6.9 mph - N/A   Clear
6:55 PM 42.8 °F 38.6 °F 32.0 °F 66% 30.18 in 10.0 mi SSW 6.9 mph - N/A   Clear
7:15 PM 41.0 °F 37.1 °F 30.2 °F 65% 30.19 in 10.0 mi SSW 5.8 mph - N/A   Clear
7:35 PM 37.4 °F 32.1 °F 30.2 °F 75% 30.19 in 10.0 mi South 6.9 mph - N/A   Scattered Clouds
7:55 PM 35.6 °F 29.2 °F 30.2 °F 81% 30.19 in 10.0 mi South 8.1 mph - N/A   Mostly Cloudy
8:15 PM 33.8 °F 27.7 °F 30.2 °F 87% 30.19 in 10.0 mi South 6.9 mph - N/A   Scattered Clouds
8:35 PM 33.8 °F 26.4 °F 30.2 °F 87% 30.19 in 10.0 mi SSW 9.2 mph - N/A   Clear
8:55 PM 33.8 °F 27.7 °F 30.2 °F 87% 30.20 in 10.0 mi South 6.9 mph - N/A   Clear
9:15 PM 33.8 °F 26.4 °F 30.2 °F 87% 30.19 in 10.0 mi South 9.2 mph - N/A   Clear
9:35 PM 33.8 °F 26.4 °F 30.2 °F 87% 30.19 in 10.0 mi South 9.2 mph - N/A   Clear
9:55 PM 33.8 °F 26.4 °F 30.2 °F 87% 30.19 in 10.0 mi South 9.2 mph - N/A   Clear
10:15 PM 33.8 °F 26.4 °F 30.2 °F 87% 30.20 in 10.0 mi SSW 9.2 mph - N/A   Clear
10:35 PM 33.8 °F 26.4 °F 30.2 °F 87% 30.20 in 10.0 mi South 9.2 mph - N/A   Clear
10:55 PM 32.0 °F 24.2 °F 30.2 °F 93% 30.19 in 10.0 mi South 9.2 mph - N/A   Clear
11:15 PM 32.0 °F 23.0 °F 30.2 °F 93% 30.19 in 10.0 mi South 11.5 mph - N/A   Clear
11:35 PM 33.8 °F 24.8 °F 30.2 °F 87% 30.19 in 10.0 mi SSW 12.7 mph - N/A   Clear
11:55 PM 33.8 °F 25.3 °F 30.2 °F 87% 30.19 in 10.0 mi SSW 11.5 mph - N/A   Clear